Погода в Мадиуне

Индонезия     7°37′45″S   111°31′38″E
темп.,
°C
ветер,
м/с
пор.,
м/с
влажн.,
%
обл.,
%
осадки,
мм/ч
давл.,
гПа
погр.,
м
26 июня, вс
вс2601:00+23ю37906 0.6 1010231
04:00+23ю389086 0.6 1009245
07:00+24ю388892 0.8 1011477
10:00+28ю456830 0.2 10111036
13:00+29ююв4465100 0.6 10081159
16:00+26ююв4676100 0.5 1009571
19:00+23ю3788100 1.7 1011207
22:00+23ю259091 0.7 1012137
27 июня, пн
пн2701:00+23ююз239137 0.8 101173
04:00+23ююз369124 0.3 1010183
07:00+24ююз379044 0.3 1011427
10:00+28ююв556619 0.0 10111081
13:00+29ююв566554 0.1 10081208
16:00+26ююв587543 0.0 1008674
19:00+23ю498076 0.1 1011366
22:00+23ююз488397 0.0 1012294
28 июня, вт
вт2801:00+22ююз488680 0.0 1010255
04:00+22ююз488514 0.0 1009298
07:00+23ю4982100 0.1 1011628
10:00+27ю5661100 0.0 10101150
13:00+29ю5556100 0.0 10081350
16:00+26ю576524 0.0 1007704
19:00+22ю377866 0.0 1010180
22:00+21ююз3781100 0.0 1011191
29 июня, ср
ср2901:00+21ю378367 0.0 1009171
04:00+21ю378279 0.0 1009225
07:00+23ю378264 0.0 1010408
10:00+27ю56605 0.0 10091144
13:00+28ю55576 0.0 10071298
16:00+27ю466221 0.0 1006622
19:00+21ююв378181 0.0 1009146
22:00+21ююз368518 0.0 1010130
30 июня, чт
чт3001:00+20ююз248667 0.0 101082
04:00+20ю2289100 0.0 100934
07:00+22ююз2485100 0.0 1010166
10:00+28ю455499 0.0 10091161
13:00+30ююв3452100 0.0 10061640
16:00+27ю4670100 0.1 1006422
19:00+23ю3885100 0.1 1009198
22:00+23ююз3687100 0.1 1010164